• In Hungary
  • List of Countries
  • For 7 days
  • Water Temperature
  • Satellite Maps
  • Weather Map
  • News
  • Weather Widgets
  • user-avatar
    Login

    Hourly Weather Stan'kova

    Today, 23 June, Saturday

    Time Temperature Precipitation Wind Pressure Humidity
    00:00 +10°C° 0.9 mm 2 mps 733 mmHg 95%
    01:00 +10°C° 0.9 mm 2 mps 733 mmHg 96%
    02:00 +10°C° 0.9 mm 2 mps 733 mmHg 96%
    03:00 +9°C° 0.9 mm 2 mps 733 mmHg 96%
    04:00 +9°C° 0.9 mm 2 mps 733 mmHg 97%
    05:00 +9°C° 0.9 mm 2 mps 733 mmHg 97%
    06:00 +9°C° 0.2 mm 2 mps 733 mmHg 95%
    07:00 +10°C° 0.2 mm 2 mps 733 mmHg 93%
    08:00 +10°C° 0.2 mm 3 mps 733 mmHg 91%
    09:00 +11°C° 0.4 mm 3 mps 733 mmHg 90%
    10:00 +11°C° 0.4 mm 3 mps 733 mmHg 88%
    11:00 +11°C° 0.4 mm 3 mps 733 mmHg 87%
    12:00 +12°C° 0.5 mm 3 mps 733 mmHg 84%
    13:00 +13°C° 0.5 mm 3 mps 733 mmHg 82%
    14:00 +13°C° 0.5 mm 3 mps 733 mmHg 79%
    15:00 +14°C° 0.5 mm 4 mps 732 mmHg 78%
    16:00 +14°C° 0.5 mm 4 mps 732 mmHg 77%
    17:00 +14°C° 0.5 mm 4 mps 732 mmHg 77%
    18:00 +13°C° 0.2 mm 4 mps 732 mmHg 81%
    19:00 +12°C° 0.2 mm 4 mps 732 mmHg 86%
    20:00 +11°C° 0.2 mm 3 mps 732 mmHg 90%
    21:00 +10°C° 0 mm 3 mps 733 mmHg 91%
    22:00 +10°C° 0 mm 3 mps 733 mmHg 93%
    23:00 +9°C° 0 mm 3 mps 733 mmHg 94%

    Tomorrow, 24 June, Sunday

    Time Temperature Precipitation Wind Pressure Humidity
    00:00 +9°C° 0 mm 3 mps 733 mmHg 93%
    01:00 +8°C° 0 mm 3 mps 733 mmHg 93%
    02:00 +8°C° 0 mm 3 mps 733 mmHg 92%
    03:00 +8°C° 0 mm 3 mps 733 mmHg 92%
    04:00 +8°C° 0 mm 3 mps 733 mmHg 92%
    05:00 +8°C° 0 mm 3 mps 733 mmHg 92%
    06:00 +9°C° 0 mm 3 mps 733 mmHg 89%
    07:00 +10°C° 0 mm 4 mps 733 mmHg 86%
    08:00 +12°C° 0 mm 4 mps 734 mmHg 83%
    09:00 +12°C° 0.1 mm 4 mps 734 mmHg 80%
    10:00 +13°C° 0.1 mm 4 mps 734 mmHg 78%
    11:00 +14°C° 0.1 mm 4 mps 734 mmHg 76%
    12:00 +15°C° 0.4 mm 4 mps 734 mmHg 74%
    13:00 +15°C° 0.4 mm 4 mps 734 mmHg 72%
    14:00 +17°C° 0.4 mm 4 mps 734 mmHg 70%
    15:00 +17°C° 0.4 mm 4 mps 734 mmHg 71%
    16:00 +17°C° 0.4 mm 4 mps 734 mmHg 72%
    17:00 +17°C° 0.4 mm 4 mps 734 mmHg 73%
    18:00 +16°C° 0.2 mm 3 mps 734 mmHg 78%
    19:00 +15°C° 0.2 mm 2 mps 734 mmHg 82%
    20:00 +13°C° 0.2 mm 1 mps 734 mmHg 87%
    21:00 +13°C° 0 mm 1 mps 734 mmHg 88%
    22:00 +12°C° 0 mm 1 mps 734 mmHg 90%
    23:00 +11°C° 0 mm 1 mps 735 mmHg 91%

    Day after tomorrow, 25 June, Monday

    Time Temperature Precipitation Wind Pressure Humidity
    00:00 +10°C° 0 mm 1 mps 735 mmHg 91%
    01:00 +10°C° 0 mm 1 mps 735 mmHg 92%
    02:00 +10°C° 0 mm 1 mps 735 mmHg 92%
    03:00 +10°C° 0 mm 1 mps 735 mmHg 92%
    04:00 +10°C° 0 mm 1 mps 735 mmHg 92%
    05:00 +9°C° 0 mm 1 mps 735 mmHg 91%
    06:00 +12°C° 0 mm 1 mps 735 mmHg 87%
    07:00 +14°C° 0 mm 1 mps 736 mmHg 82%
    08:00 +16°C° 0 mm 1 mps 736 mmHg 77%
    09:00 +18°C° 0.1 mm 1 mps 736 mmHg 73%
    10:00 +19°C° 0.1 mm 1 mps 736 mmHg 69%
    11:00 +20°C° 0.1 mm 1 mps 736 mmHg 65%
    12:00 +21°C° 0.4 mm 1 mps 736 mmHg 64%
    13:00 +21°C° 0.4 mm 1 mps 736 mmHg 63%
    14:00 +22°C° 0.4 mm 1 mps 736 mmHg 62%
    15:00 +22°C° 0.4 mm 1 mps 736 mmHg 63%
    16:00 +21°C° 0.4 mm 1 mps 736 mmHg 63%
    17:00 +21°C° 0.4 mm 1 mps 736 mmHg 64%
    18:00 +20°C° 0.2 mm 1 mps 736 mmHg 69%
    19:00 +19°C° 0.2 mm 1 mps 736 mmHg 75%
    20:00 +15°C° 0.2 mm 0 mps 736 mmHg 80%
    21:00 +14°C° 0.2 mm 0 mps 736 mmHg 82%
    22:00 +13°C° 0.2 mm 0 mps 737 mmHg 84%
    23:00 +12°C° 0.2 mm 0 mps 737 mmHg 87%

    26 June, Tuesday

    Time Temperature Precipitation Wind Pressure Humidity
    00:00 +12°C° 0.1 mm 0 mps 737 mmHg 88%
    01:00 +11°C° 0.1 mm 0 mps 737 mmHg 89%
    02:00 +12°C° 0.1 mm 1 mps 737 mmHg 90%
    03:00 +11°C° 0 mm 0 mps 737 mmHg 90%
    04:00 +11°C° 0 mm 0 mps 737 mmHg 91%
    05:00 +11°C° 0 mm 0 mps 737 mmHg 91%
    06:00 +14°C° 0 mm 1 mps 737 mmHg 88%
    07:00 +15°C° 0 mm 1 mps 738 mmHg 84%
    08:00 +18°C° 0 mm 1 mps 738 mmHg 80%
    09:00 +19°C° 0.3 mm 1 mps 738 mmHg 77%
    10:00 +21°C° 0.3 mm 1 mps 738 mmHg 73%
    11:00 +21°C° 0.3 mm 2 mps 738 mmHg 70%
    12:00 +21°C° 0.5 mm 2 mps 738 mmHg 69%
    13:00 +21°C° 0.5 mm 2 mps 738 mmHg 69%
    14:00 +23°C° 0.5 mm 2 mps 738 mmHg 69%
    15:00 +23°C° 0.3 mm 2 mps 738 mmHg 69%
    16:00 +23°C° 0.3 mm 2 mps 738 mmHg 69%
    17:00 +23°C° 0.3 mm 2 mps 738 mmHg 69%
    18:00 +20°C° 0.1 mm 2 mps 738 mmHg 73%
    19:00 +20°C° 0.1 mm 1 mps 738 mmHg 78%
    20:00 +19°C° 0.1 mm 1 mps 738 mmHg 83%
    21:00 +18°C° 0 mm 1 mps 738 mmHg 85%
    22:00 +16°C° 0 mm 1 mps 738 mmHg 88%
    23:00 +14°C° 0 mm 1 mps 738 mmHg 90%

    27 June, Wednesday

    Time Temperature Precipitation Wind Pressure Humidity
    00:00 +14°C° 0 mm 1 mps 738 mmHg 90%
    01:00 +14°C° 0 mm 1 mps 738 mmHg 91%
    02:00 +13°C° 0 mm 1 mps 738 mmHg 91%
    03:00 +13°C° 0 mm 1 mps 738 mmHg 92%
    04:00 +13°C° 0 mm 1 mps 738 mmHg 93%
    05:00 +13°C° 0 mm 1 mps 738 mmHg 93%
    06:00 +14°C° 0 mm 1 mps 738 mmHg 89%
    07:00 +16°C° 0 mm 2 mps 738 mmHg 85%
    08:00 +18°C° 0 mm 2 mps 738 mmHg 80%
    09:00 +19°C° 0.1 mm 2 mps 738 mmHg 75%
    10:00 +20°C° 0.1 mm 3 mps 738 mmHg 70%
    11:00 +21°C° 0.1 mm 3 mps 737 mmHg 65%
    12:00 +22°C° 0.2 mm 3 mps 737 mmHg 66%
    13:00 +22°C° 0.2 mm 3 mps 737 mmHg 66%
    14:00 +22°C° 0.2 mm 4 mps 737 mmHg 67%
    15:00 +22°C° 0.2 mm 4 mps 736 mmHg 68%
    16:00 +22°C° 0.2 mm 4 mps 736 mmHg 69%
    17:00 +22°C° 0.2 mm 4 mps 736 mmHg 70%
    18:00 +20°C° 0.1 mm 3 mps 736 mmHg 76%
    19:00 +19°C° 0.1 mm 2 mps 736 mmHg 81%
    20:00 +17°C° 0.1 mm 2 mps 736 mmHg 87%
    21:00 +16°C° 0 mm 2 mps 736 mmHg 89%
    22:00 +15°C° 0 mm 2 mps 737 mmHg 91%
    23:00 +14°C° 0 mm 2 mps 737 mmHg 92%

    28 June, Thursday

    Time Temperature Precipitation Wind Pressure Humidity
    00:00 +14°C° 0 mm 2 mps 737 mmHg 93%
    01:00 +13°C° 0 mm 2 mps 736 mmHg 94%
    02:00 +13°C° 0 mm 2 mps 736 mmHg 94%
    03:00 +13°C° 0 mm 2 mps 736 mmHg 95%
    04:00 +12°C° 0 mm 2 mps 736 mmHg 95%
    05:00 +12°C° 0 mm 2 mps 736 mmHg 96%
    06:00 +14°C° 0 mm 2 mps 737 mmHg 92%
    07:00 +15°C° 0 mm 2 mps 737 mmHg 89%
    08:00 +17°C° 0 mm 3 mps 737 mmHg 86%
    09:00 +18°C° 0.1 mm 3 mps 737 mmHg 80%
    10:00 +19°C° 0.1 mm 3 mps 737 mmHg 75%
    11:00 +21°C° 0.1 mm 4 mps 737 mmHg 70%
    12:00 +21°C° 0.2 mm 4 mps 736 mmHg 68%
    13:00 +22°C° 0.2 mm 4 mps 736 mmHg 66%
    14:00 +22°C° 0.2 mm 4 mps 736 mmHg 64%
    15:00 +22°C° 0.3 mm 4 mps 736 mmHg 66%
    16:00 +22°C° 0.3 mm 4 mps 736 mmHg 69%
    17:00 +22°C° 0.3 mm 4 mps 736 mmHg 71%
    18:00 +20°C° 0.3 mm 3 mps 736 mmHg 77%
    19:00 +19°C° 0.3 mm 3 mps 736 mmHg 82%
    20:00 +18°C° 0.3 mm 2 mps 736 mmHg 87%
    21:00 +17°C° 0 mm 2 mps 736 mmHg 89%
    22:00 +16°C° 0 mm 2 mps 736 mmHg 91%
    23:00 +15°C° 0 mm 2 mps 736 mmHg 92%
    Show more